KLM835 EHAM-WSSS

Flight info

Callsign KLM835
Flight time N/A
Altitude 33000
Route ARNEM L620 HMM DCT NOMKA L620 OMELO DCT PEPIK DCT BUDOP DCT LUGEB DCT UDROS UM859 KARDE UN644 ROLIN DCT TAGAR/N0482F350 DCT BT DCT BARAD M747 SUBUT T923 ERLEV M11 RODAR A909 LEMOD N644 DI A466 DPN/N0491F370 L759 ANPAN/N0486F390 L759 PUT B579 VPL Y503 RINBA Y507 MAKNA Y511 TOPOR A464 ARAMA DCT TEBUN TEBUN1A
Aircraft B77W/H-SDE1E2E3FGHIJ2J3J4J5M1RWXY/LB1D1

Departure

Time 2026-04-27 18:25
Airport Amsterdam Airport Schiphol (EHAM)

Arrival

Time N/A
Airport Singapore Changi Airport (WSSS)
Time Latitude Longitude Altitude Speed Heading
2026-04-27 17:54 52.31113 4.76718 3 ft 0 kts 304°
2026-04-27 18:05 52.31104 4.76740 4 ft 2 kts 307°
2026-04-27 18:06 52.31094 4.76761 4 ft 2 kts 310°
2026-04-27 18:06 52.31083 4.76781 6 ft 2 kts 315°
2026-04-27 18:06 52.31071 4.76798 7 ft 2 kts 324°
2026-04-27 18:06 52.31057 4.76812 7 ft 2 kts 341°
2026-04-27 18:07 52.31046 4.76816 6 ft 2 kts 360°
2026-04-27 18:07 52.31030 4.76811 6 ft 2 kts 29°
2026-04-27 18:07 52.31026 4.76807 6 ft 0 kts 33°
2026-04-27 18:10 52.31034 4.76816 3 ft 5 kts 34°
2026-04-27 18:10 52.31081 4.76867 3 ft 11 kts 33°
2026-04-27 18:10 52.31150 4.76941 4 ft 12 kts 33°
2026-04-27 18:10 52.31219 4.77015 4 ft 12 kts 33°
2026-04-27 18:11 52.31288 4.77090 3 ft 12 kts 33°
2026-04-27 18:11 52.31358 4.77165 4 ft 12 kts 33°
2026-04-27 18:11 52.31437 4.77194 4 ft 12 kts
2026-04-27 18:11 52.31504 4.77198 4 ft 10 kts
2026-04-27 18:12 52.31561 4.77157 3 ft 10 kts 300°
2026-04-27 18:12 52.31566 4.77045 3 ft 10 kts 268°
2026-04-27 18:12 52.31562 4.76917 4 ft 13 kts 266°
2026-04-27 18:12 52.31556 4.76743 4 ft 18 kts 266°
2026-04-27 18:13 52.31549 4.76537 4 ft 18 kts 267°
2026-04-27 18:13 52.31542 4.76330 4 ft 18 kts 267°
2026-04-27 18:13 52.31535 4.76127 4 ft 18 kts 266°
2026-04-27 18:13 52.31528 4.75920 4 ft 18 kts 266°
2026-04-27 18:14 52.31521 4.75718 4 ft 15 kts 267°
2026-04-27 18:14 52.31516 4.75592 4 ft 7 kts 267°
2026-04-27 18:14 52.31515 4.75546 4 ft 3 kts 267°
2026-04-27 18:14 52.31514 4.75524 4 ft 2 kts 266°
2026-04-27 18:15 52.31513 4.75482 4 ft 6 kts 266°
2026-04-27 18:15 52.31510 4.75396 3 ft 10 kts 267°
2026-04-27 18:15 52.31505 4.75261 3 ft 15 kts 267°
2026-04-27 18:15 52.31499 4.75083 4 ft 17 kts 267°
2026-04-27 18:16 52.31493 4.74894 4 ft 17 kts 267°
2026-04-27 18:16 52.31487 4.74705 4 ft 17 kts 267°
2026-04-27 18:16 52.31481 4.74519 4 ft 17 kts 267°
2026-04-27 18:16 52.31474 4.74335 4 ft 16 kts 266°
2026-04-27 18:17 52.31508 4.74177 4 ft 16 kts 326°
2026-04-27 18:17 52.31614 4.74160 4 ft 16 kts
2026-04-27 18:17 52.31722 4.74170 4 ft 16 kts
2026-04-27 18:17 52.31830 4.74180 4 ft 16 kts
2026-04-27 18:18 52.31939 4.74190 4 ft 16 kts
2026-04-27 18:18 52.32026 4.74111 3 ft 16 kts 293°
2026-04-27 18:18 52.32040 4.73936 3 ft 16 kts 274°
2026-04-27 18:18 52.32047 4.73759 4 ft 16 kts 273°
2026-04-27 18:19 52.32053 4.73582 4 ft 16 kts 273°
2026-04-27 18:19 52.32072 4.73409 4 ft 16 kts 295°
2026-04-27 18:19 52.32144 4.73279 4 ft 16 kts 318°
2026-04-27 18:19 52.32225 4.73165 4 ft 16 kts 319°
2026-04-27 18:20 52.32307 4.73049 4 ft 16 kts 319°
2026-04-27 18:20 52.32389 4.72934 4 ft 16 kts 319°
2026-04-27 18:20 52.32485 4.72799 4 ft 21 kts 319°
2026-04-27 18:20 52.32606 4.72628 4 ft 24 kts 319°
2026-04-27 18:21 52.32728 4.72429 4 ft 25 kts 311°
2026-04-27 18:21 52.32839 4.72223 4 ft 23 kts 311°
2026-04-27 18:21 52.32947 4.72026 4 ft 20 kts 311°
2026-04-27 18:21 52.32988 4.71838 4 ft 18 kts 267°
2026-04-27 18:22 52.33011 4.71654 4 ft 17 kts 307°
2026-04-27 18:22 52.33076 4.71527 4 ft 8 kts 304°
2026-04-27 18:22 52.33078 4.71443 4 ft 8 kts 246°
2026-04-27 18:22 52.33036 4.71362 4 ft 11 kts 224°
2026-04-27 18:23 52.32977 4.71277 4 ft 11 kts 221°
2026-04-27 18:23 52.32918 4.71191 4 ft 11 kts 221°
2026-04-27 18:23 52.32872 4.71102 3 ft 10 kts 244°
2026-04-27 18:23 52.32865 4.70989 3 ft 10 kts 272°
2026-04-27 18:24 52.32899 4.70903 2 ft 9 kts 341°
2026-04-27 18:24 52.32955 4.70901 2 ft 8 kts
2026-04-27 18:24 52.33145 4.70918 0 ft 58 kts
2026-04-27 18:24 52.33768 4.70975 4 ft 119 kts
2026-04-27 18:25 52.34777 4.71067 4 ft 168 kts
2026-04-27 18:25 52.36042 4.71179 171 ft 185 kts
2026-04-27 18:25 52.37333 4.71290 641 ft 190 kts
2026-04-27 18:25 52.38654 4.71414 1133 ft 191 kts
2026-04-27 18:26 52.39976 4.71535 1682 ft 189 kts
2026-04-27 18:26 52.41331 4.71642 2040 ft 204 kts
2026-04-27 18:26 52.42785 4.72030 2227 ft 221 kts 25°
2026-04-27 18:26 52.44113 4.73345 2577 ft 231 kts 34°
2026-04-27 18:27 52.45499 4.74801 3141 ft 241 kts 30°
2026-04-27 18:27 52.46941 4.76286 3676 ft 250 kts 40°
2026-04-27 18:27 52.47947 4.78639 4198 ft 260 kts 69°
2026-04-27 18:27 52.48258 4.81563 4955 ft 262 kts 83°
2026-04-27 18:28 52.48401 4.84591 5568 ft 268 kts 83°
2026-04-27 18:28 52.48558 4.87678 6252 ft 274 kts 84°
2026-04-27 18:28 52.48432 4.90795 6827 ft 280 kts 111°
2026-04-27 18:28 52.47318 4.93380 7414 ft 282 kts 144°
2026-04-27 18:29 52.45715 4.95155 7967 ft 285 kts 147°
2026-04-27 18:29 52.44071 4.97006 8655 ft 286 kts 147°
2026-04-27 18:29 52.42449 4.98867 9503 ft 284 kts 148°
2026-04-27 18:29 52.40828 5.00730 10181 ft 287 kts 147°
2026-04-27 18:30 52.39176 5.02633 10649 ft 298 kts 146°
2026-04-27 18:30 52.37410 5.04668 10799 ft 320 kts 147°
2026-04-27 18:30 52.35530 5.06836 10992 ft 341 kts 146°
2026-04-27 18:30 52.33653 5.09367 11100 ft 361 kts 130°
2026-04-27 18:31 52.32442 5.13059 11433 ft 372 kts 110°
2026-04-27 18:31 52.31571 5.17060 11862 ft 385 kts 111°
2026-04-27 18:31 52.30619 5.21177 12557 ft 390 kts 111°
2026-04-27 18:31 52.29636 5.25329 13325 ft 393 kts 111°
2026-04-27 18:32 52.28639 5.29506 14116 ft 397 kts 111°
2026-04-27 18:32 52.27626 5.33733 14772 ft 402 kts 111°
2026-04-27 18:32 52.26597 5.38023 15385 ft 408 kts 111°
2026-04-27 18:33 52.25682 5.41829 15965 ft 411 kts 112°
2026-04-27 18:33 52.24638 5.46163 16666 ft 414 kts 111°
2026-04-27 18:33 52.23578 5.50557 17316 ft 419 kts 112°
2026-04-27 18:33 52.22503 5.55005 17902 ft 425 kts 112°
2026-04-27 18:34 52.21406 5.59529 18502 ft 431 kts 112°
2026-04-27 18:34 52.20313 5.64033 19025 ft 435 kts 112°
2026-04-27 18:34 52.19190 5.68651 19609 ft 438 kts 112°
2026-04-27 18:34 52.18061 5.73280 20180 ft 442 kts 113°
2026-04-27 18:35 52.16919 5.77955 20730 ft 446 kts 113°
2026-04-27 18:35 52.15766 5.82668 21275 ft 450 kts 113°
2026-04-27 18:35 52.14600 5.87418 21809 ft 454 kts 114°
2026-04-27 18:35 52.13423 5.92207 22318 ft 458 kts 113°
2026-04-27 18:36 52.12236 5.97031 22881 ft 461 kts 113°
2026-04-27 18:36 52.11151 6.01966 23386 ft 466 kts 107°
2026-04-27 18:36 52.10417 6.07131 23872 ft 470 kts 102°
2026-04-27 18:36 52.09780 6.12366 24285 ft 474 kts 102°
2026-04-27 18:37 52.09134 6.17648 24698 ft 477 kts 103°
2026-04-27 18:37 52.08475 6.22958 25108 ft 481 kts 103°
2026-04-27 18:37 52.07800 6.28307 25517 ft 484 kts 103°
2026-04-27 18:37 52.07110 6.33679 25917 ft 487 kts 103°
2026-04-27 18:38 52.06409 6.39082 26306 ft 490 kts 103°
2026-04-27 18:38 52.05708 6.44441 26674 ft 493 kts 103°
2026-04-27 18:38 52.04987 6.49923 27049 ft 497 kts 103°
2026-04-27 18:38 52.04262 6.55420 27405 ft 500 kts 103°
2026-04-27 18:39 52.03528 6.60960 27750 ft 503 kts 103°
2026-04-27 18:39 52.02787 6.66532 28101 ft 506 kts 104°
2026-04-27 18:39 52.02039 6.72139 28434 ft 509 kts 104°
2026-04-27 18:39 52.01283 6.77782 28745 ft 512 kts 104°
2026-04-27 18:40 52.00779 6.81535 28959 ft 514 kts 104°
2026-04-27 18:40 51.99753 6.89149 29319 ft 519 kts 104°
2026-04-27 18:40 51.98974 6.94893 29507 ft 523 kts 104°
2026-04-27 18:40 51.98186 7.00689 29758 ft 526 kts 104°
2026-04-27 18:41 51.97396 7.06480 30081 ft 527 kts 104°
2026-04-27 18:41 51.96610 7.12219 30443 ft 527 kts 104°
2026-04-27 18:41 51.95810 7.18037 30790 ft 526 kts 104°
2026-04-27 18:41 51.95012 7.23817 31102 ft 526 kts 104°
2026-04-27 18:42 51.94210 7.29601 31391 ft 526 kts 104°
2026-04-27 18:42 51.93677 7.33433 31598 ft 526 kts 104°
2026-04-27 18:42 51.92593 7.41191 31812 ft 530 kts 105°
2026-04-27 18:42 51.91774 7.47024 32072 ft 530 kts 105°
2026-04-27 18:43 51.90955 7.52841 32408 ft 529 kts 105°
2026-04-27 18:43 51.90136 7.58632 32722 ft 528 kts 105°
2026-04-27 18:43 51.89311 7.64447 32987 ft 528 kts 105°
2026-04-27 18:43 51.88485 7.70247 33158 ft 530 kts 105°
2026-04-27 18:44 51.86822 7.81848 33218 ft 532 kts 105°
2026-04-27 18:44 51.85146 7.93460 33231 ft 528 kts 105°
2026-04-27 18:45 51.83463 8.05034 33223 ft 528 kts 105°
2026-04-27 18:45 51.81771 8.16570 33224 ft 527 kts 105°
2026-04-27 18:46 51.80070 8.28091 33212 ft 527 kts 105°
2026-04-27 18:46 51.78353 8.39629 33215 ft 528 kts 105°
2026-04-27 18:47 51.76621 8.51192 33219 ft 530 kts 105°
2026-04-27 18:47 51.74874 8.62765 33217 ft 531 kts 105°
2026-04-27 18:48 51.73124 8.74274 33213 ft 532 kts 105°
2026-04-27 18:48 51.71348 8.85874 33220 ft 532 kts 105°
2026-04-27 18:49 51.69559 8.97477 33222 ft 533 kts 105°
2026-04-27 18:49 51.67757 9.09076 33217 ft 534 kts 106°
2026-04-27 18:50 51.65939 9.20692 33231 ft 535 kts 106°
2026-04-27 18:50 51.64106 9.32320 33224 ft 536 kts 106°
2026-04-27 18:51 51.62273 9.43880 33211 ft 536 kts 106°
2026-04-27 18:51 51.60417 9.55491 33213 ft 536 kts 106°
2026-04-27 18:52 51.58551 9.67088 33214 ft 535 kts 106°
2026-04-27 18:53 51.55735 9.84442 33216 ft 534 kts 106°
2026-04-27 18:53 51.54153 9.94106 33217 ft 533 kts 106°
2026-04-27 18:54 51.52271 10.05545 33215 ft 532 kts 106°
2026-04-27 18:54 51.50366 10.17035 33215 ft 532 kts 106°
2026-04-27 18:55 51.48449 10.28523 33223 ft 532 kts 106°
2026-04-27 18:55 51.46524 10.39991 33221 ft 532 kts 107°
2026-04-27 18:56 51.44589 10.51454 33224 ft 532 kts 106°
2026-04-27 18:56 51.42741 10.62943 33226 ft 532 kts 105°
2026-04-27 18:57 51.40927 10.74434 33222 ft 533 kts 105°
2026-04-27 18:57 51.39094 10.85848 33232 ft 533 kts 105°
2026-04-27 18:58 51.37229 10.97344 33228 ft 533 kts 105°
2026-04-27 18:58 51.35377 11.08840 33225 ft 532 kts 105°
2026-04-27 18:59 51.33524 11.20306 33227 ft 532 kts 105°
2026-04-27 18:59 51.31669 11.31674 33227 ft 531 kts 105°
2026-04-27 19:00 51.29783 11.43100 33230 ft 530 kts 105°
2026-04-27 19:00 51.27381 11.54212 33227 ft 528 kts 117°
2026-04-27 19:01 51.23746 11.64318 33235 ft 524 kts 126°
2026-04-27 19:01 51.19715 11.73995 33223 ft 523 kts 126°
2026-04-27 19:02 51.15729 11.83634 33226 ft 524 kts 126°
2026-04-27 19:02 51.11730 11.93367 33237 ft 525 kts 125°
2026-04-27 19:03 51.07730 12.03101 33224 ft 526 kts 125°
2026-04-27 19:03 51.03714 12.12835 33224 ft 526 kts 126°
2026-04-27 19:04 50.99684 12.22557 33212 ft 526 kts 126°
2026-04-27 19:04 50.95647 12.32256 33213 ft 526 kts 126°
2026-04-27 19:05 50.91631 12.41869 33211 ft 525 kts 126°
2026-04-27 19:05 50.87587 12.51517 33219 ft 525 kts 126°
2026-04-27 19:06 50.83536 12.61144 33218 ft 525 kts 126°
2026-04-27 19:06 50.79476 12.70755 33207 ft 525 kts 126°
2026-04-27 19:07 50.75411 12.80344 33214 ft 526 kts 126°
2026-04-27 19:07 50.71332 12.89932 33222 ft 526 kts 126°
2026-04-27 19:08 50.67247 12.99498 33242 ft 526 kts 126°
2026-04-27 19:08 50.63150 13.09056 33219 ft 526 kts 126°
2026-04-27 19:09 50.59074 13.18532 33224 ft 526 kts 126°
2026-04-27 19:09 50.54962 13.28058 33220 ft 525 kts 126°
2026-04-27 19:10 50.50849 13.37550 33207 ft 525 kts 126°
2026-04-27 19:10 50.46728 13.47025 33211 ft 524 kts 126°
2026-04-27 19:11 50.42611 13.56458 33214 ft 524 kts 126°
2026-04-27 19:11 50.38480 13.65890 33211 ft 524 kts 126°
2026-04-27 19:12 50.34344 13.75299 33214 ft 524 kts 126°
2026-04-27 19:12 50.30189 13.84718 33202 ft 525 kts 126°
2026-04-27 19:13 50.26031 13.94108 33208 ft 525 kts 126°
2026-04-27 19:13 50.21892 14.03424 33202 ft 525 kts 126°
2026-04-27 19:14 50.17722 14.12778 33187 ft 525 kts 126°
2026-04-27 19:14 50.13540 14.22123 33185 ft 525 kts 127°
2026-04-27 19:15 50.09344 14.31468 33190 ft 525 kts 126°
2026-04-27 19:15 50.05176 14.40716 33186 ft 524 kts 127°
2026-04-27 19:16 50.00980 14.49995 33192 ft 525 kts 127°
2026-04-27 19:16 49.96771 14.59269 33196 ft 525 kts 127°
2026-04-27 19:17 49.92555 14.68528 33175 ft 525 kts 127°
2026-04-27 19:17 49.88328 14.77777 33193 ft 525 kts 127°
2026-04-27 19:18 49.84129 14.86933 33198 ft 525 kts 127°
2026-04-27 19:18 49.79886 14.96155 33197 ft 525 kts 127°
2026-04-27 19:19 49.75635 15.05360 33197 ft 525 kts 127°
2026-04-27 19:19 49.71379 15.14544 33198 ft 526 kts 127°
2026-04-27 19:20 49.67110 15.23725 33198 ft 526 kts 127°
2026-04-27 19:20 49.62828 15.32903 33196 ft 527 kts 127°
2026-04-27 19:21 49.58545 15.42050 33191 ft 526 kts 127°
2026-04-27 19:21 49.54278 15.51133 33197 ft 526 kts 127°
2026-04-27 19:22 49.49975 15.60260 33195 ft 526 kts 127°
2026-04-27 19:22 49.45666 15.69370 33197 ft 526 kts 127°
2026-04-27 19:23 49.41355 15.78453 33190 ft 526 kts 127°
2026-04-27 19:23 49.37057 15.87477 33189 ft 526 kts 127°
2026-04-27 19:24 49.32719 15.96553 33180 ft 526 kts 127°
2026-04-27 19:24 49.28376 16.05612 33169 ft 525 kts 127°
2026-04-27 19:25 49.24070 16.14562 33180 ft 525 kts 127°
2026-04-27 19:25 49.19722 16.23567 33187 ft 526 kts 127°
2026-04-27 19:26 49.15370 16.32552 33180 ft 526 kts 127°
2026-04-27 19:26 49.11008 16.41528 33186 ft 526 kts 127°
2026-04-27 19:27 49.06810 16.50683 33180 ft 526 kts 124°
2026-04-27 19:27 49.02810 16.60031 33193 ft 527 kts 123°
2026-04-27 19:28 48.98803 16.69377 33185 ft 527 kts 123°
2026-04-27 19:28 48.94745 16.78688 33172 ft 527 kts 124°
2026-04-27 19:29 48.90691 16.87895 33179 ft 527 kts 124°
2026-04-27 19:29 48.86608 16.97128 33179 ft 526 kts 124°
2026-04-27 19:30 48.82527 17.06332 33176 ft 525 kts 124°
2026-04-27 19:30 48.78442 17.15520 33183 ft 524 kts 124°
2026-04-27 19:31 48.74361 17.24670 33183 ft 524 kts 124°
2026-04-27 19:31 48.70299 17.33745 33174 ft 523 kts 124°
2026-04-27 19:32 48.66204 17.42860 33180 ft 522 kts 124°
2026-04-27 19:32 48.62110 17.51946 33157 ft 522 kts 124°
2026-04-27 19:33 48.58017 17.60998 33186 ft 522 kts 124°
2026-04-27 19:33 48.53932 17.70002 33178 ft 523 kts 124°
2026-04-27 19:34 48.49811 17.79055 33177 ft 524 kts 124°
2026-04-27 19:34 48.45672 17.88117 33170 ft 525 kts 124°
2026-04-27 19:35 48.41522 17.97173 33177 ft 525 kts 124°
2026-04-27 19:35 48.37448 18.06306 33165 ft 526 kts 119°
2026-04-27 19:36 48.34001 18.15988 33169 ft 526 kts 116°
2026-04-27 19:36 48.30610 18.25740 33168 ft 526 kts 117°
2026-04-27 19:37 48.27175 18.35455 33171 ft 526 kts 117°
2026-04-27 19:37 48.24291 18.43496 33153 ft 525 kts 117°
2026-04-27 19:38 48.20810 18.53134 33160 ft 524 kts 117°
2026-04-27 19:38 48.17329 18.62739 33163 ft 523 kts 117°
2026-04-27 19:39 48.13871 18.72256 33174 ft 523 kts 117°
2026-04-27 19:39 48.10383 18.81823 33169 ft 524 kts 117°
2026-04-27 19:40 48.06881 18.91396 33164 ft 524 kts 117°
2026-04-27 19:40 48.03372 19.00951 33169 ft 525 kts 117°
2026-04-27 19:41 47.99855 19.10497 33169 ft 525 kts 117°
2026-04-27 19:41 47.96321 19.20051 33161 ft 525 kts 117°
2026-04-27 19:42 47.92782 19.29586 33165 ft 525 kts 117°
2026-04-27 19:42 47.89254 19.39055 33165 ft 525 kts 117°
2026-04-27 19:43 47.85694 19.48576 33149 ft 525 kts 117°
2026-04-27 19:43 47.82138 19.58053 33152 ft 524 kts 117°
2026-04-27 19:44 47.78576 19.67512 33152 ft 523 kts 117°
2026-04-27 19:44 47.75033 19.76888 33170 ft 523 kts 117°
2026-04-27 19:45 47.71459 19.86314 33163 ft 524 kts 117°
2026-04-27 19:45 47.67871 19.95742 33152 ft 524 kts 117°
2026-04-27 19:46 47.64267 20.05179 33156 ft 525 kts 117°
2026-04-27 19:46 47.60659 20.14593 33162 ft 525 kts 117°
2026-04-27 19:47 47.57037 20.24010 33156 ft 526 kts 117°
2026-04-27 19:47 47.53406 20.33418 33152 ft 526 kts 117°
2026-04-27 19:48 47.49794 20.42744 33149 ft 525 kts 117°
2026-04-27 19:48 47.46148 20.52124 33151 ft 526 kts 117°
2026-04-27 19:49 47.42497 20.61488 33153 ft 526 kts 117°
2026-04-27 19:49 47.38836 20.70842 33153 ft 526 kts 118°
2026-04-27 19:50 47.35170 20.80176 33160 ft 525 kts 118°
2026-04-27 19:50 47.31508 20.89467 33165 ft 524 kts 118°
2026-04-27 19:51 47.27832 20.98765 33169 ft 524 kts 118°
2026-04-27 19:51 47.24160 21.08018 33167 ft 524 kts 118°
2026-04-27 19:52 47.20471 21.17285 33172 ft 524 kts 118°
2026-04-27 19:52 47.16798 21.26479 33157 ft 525 kts 118°
2026-04-27 19:53 47.11230 21.40357 33174 ft 526 kts 118°
2026-04-27 19:53 47.07502 21.49607 33171 ft 526 kts 118°
2026-04-27 19:54 47.03766 21.58850 33175 ft 527 kts 118°